Volver al catálogo

ARIANE 42P+ DEB

LostHEO
NORAD 34187·DEBRIS·🇫🇷 France

Lanzado Oct 28, 1992 desde Guiana Space Centre

Loading…

Próximos Pases (próximas 24 horas)

TLE

ObsoletoSource: Space-Track

Época: Oct 25, 2012, 23:39 UTC

1 34187U 92072T   12299.98569940 +.00001898 +00000-0 +36331-2 0  9990
2 34187 007.0419 221.4985 6430415 047.4777 351.2718 03.29595849072804

Sigue ARIANE 42P+ DEB en tiempo real con AllMySat

Download on the App Store